Home > Weather > Gurgaon > Past weeks

Flag for India Weather for the Past 2 Weeks in Gurgaon, Haryana, India

Now
95 °F

Scattered clouds.


Feels Like: 93 °F
Forecast: 77 / 103 °F
Wind: 9 mph from Southeast

Location: New Delhi Palam Airport

Current Time: May 4, 2016 at 10:24:01 AM

Latest Report: May 4, 2016 at 9:30 AM


Visibility: 2 mi

Pressure: 29.74 "Hg

Humidity: 25%

Dew Point: 54 °F

Location of GurgaonLocation

Historic Weather in Gurgaon — Graph

°F

Gurgaon Temperature Yesterday

Maximum temperature yesterday: 104 °F (at 3:30 PM)
Minimum temperature yesterday: 91 °F (at 4:00 AM)
Average temperature yesterday: 97 °F

High & Low Weather Summary for the Past Weeks

 TemperatureHumidityPressure
High115 °F (May 2, 2:30 PM)47% (Apr 21, 6:30 AM)29.83 "Hg (Apr 21, 6:30 AM)
Low72 °F (Apr 24, 4:30 AM)5% (May 2, 2:00 PM)29.53 "Hg (Apr 22, 4:30 PM)
Average93 °F18%29.69 "Hg
* Reported Apr 19 8:30 AM — May 4 8:30 AM, Gurgaon, Weather by CustomWeather, © 2016

Note: Actual official high and low records may vary slightly from our data, if they occured in-between our weather recording intervals... More about our weather records

Advertising

Gurgaon Weather History for the Previous 24 Hours

Scroll right to see more
 ConditionsComfort  
Time TempWeatherWind HumidityBarometerVisibility
8:30 AM
Wed, May 4
91 °FScattered clouds.5 mph28%29.71 "Hg2 mi
8:00 AM90 °FScattered clouds.7 mph29%29.71 "Hg2 mi
7:30 AM88 °FScattered clouds.8 mph35%29.71 "Hg2 mi
7:00 AM86 °FScattered clouds.7 mph38%29.68 "Hg1 mi
6:30 AM86 °FScattered clouds.7 mph35%29.68 "Hg1 mi
6:00 AM86 °FPassing clouds.8 mph35%29.68 "Hg1 mi
5:30 AM84 °FPassing clouds.6 mph37%29.68 "Hg1 mi
5:00 AM84 °FPassing clouds.5 mph37%29.68 "Hg1 mi
4:30 AM84 °FPassing clouds.7 mph37%29.65 "Hg1 mi
4:00 AM84 °FPassing clouds.8 mph37%29.65 "Hg1 mi
3:30 AM84 °FPassing clouds.3 mph37%29.65 "Hg1 mi
3:00 AM84 °FPassing clouds.3 mph37%29.65 "Hg1 mi
2:30 AM84 °FPassing clouds.3 mph37%29.65 "Hg1 mi
2:00 AM84 °FPassing clouds.5 mph37%29.65 "Hg1 mi
1:30 AM86 °FPassing clouds.5 mph35%29.68 "Hg1 mi
1:00 AM88 °FPassing clouds.5 mph33%29.68 "Hg1 mi
12:30 AM90 °FPassing clouds.5 mph31%29.68 "Hg1 mi
12:00 AM90 °FPassing clouds.6 mph31%29.71 "Hg1 mi
11:30 PM
Tue, May 3
91 °FPartly cloudy.7 mph34%29.71 "Hg1 mi
11:00 PM91 °FPartly cloudy.7 mph32%29.71 "Hg1 mi
10:30 PM91 °FPartly cloudy.7 mph32%29.71 "Hg1 mi
10:00 PM91 °FPartly cloudy.7 mph32%29.68 "Hg1 mi
9:30 PM93 °FPartly cloudy.6 mph26%29.68 "Hg2 mi
9:00 PM93 °FPartly cloudy.6 mph26%29.68 "Hg2 mi
8:30 PM93 °FPassing clouds.6 mph30%29.68 "Hg2 mi
7:30 PM97 °FPassing clouds.6 mph23%29.62 "Hg2 mi
7:00 PM99 °FScattered clouds.7 mph21%29.62 "Hg2 mi
6:30 PM100 °FBroken clouds.3 mph18%29.62 "Hg2 mi
6:00 PM102 °FBroken clouds.3 mph16%29.62 "Hg2 mi
5:00 PM104 °FBroken clouds.6 mph12%29.62 "Hg2 mi
4:30 PM104 °FBroken clouds.6 mph12%29.62 "Hg2 mi
4:00 PM104 °FBroken clouds.6 mph12%29.62 "Hg2 mi
3:30 PM104 °FBroken clouds.5 mph12%29.65 "Hg2 mi
3:00 PM102 °FBroken clouds.5 mph11%29.68 "Hg2 mi
2:30 PM102 °FBroken clouds.6 mph11%29.71 "Hg2 mi
2:00 PM100 °FBroken clouds.7 mph14%29.71 "Hg2 mi
1:30 PM100 °FBroken clouds.5 mph12%29.71 "Hg2 mi
1:00 PM100 °FBroken clouds.7 mph12%29.71 "Hg2 mi
12:30 PM99 °FBroken clouds.7 mph13%29.74 "Hg2 mi
12:00 PM99 °FBroken clouds.9 mph13%29.74 "Hg2 mi
11:30 AM99 °FBroken clouds.9 mph13%29.74 "Hg2 mi
11:00 AM97 °FBroken clouds.9 mph13%29.77 "Hg2 mi
10:30 AM97 °FBroken clouds.9 mph13%29.77 "Hg2 mi
10:00 AM95 °FBroken clouds.7 mph14%29.77 "Hg2 mi
Weather by CustomWeather, © 2016

See weather overviewHow to use our weather pages